Regional Weather Roundup
Issued by NWS

Home | Current Version | Previous Version | Graphics & Text | Print | Product List | Glossary On
Versions: 1 2 3 4 5 6 7 8 9 10 11 12 13 14 15 16 17 18 19 20 21 22 23 24 25 26 27 28 29 30 31 32 33 34 35 36 37 38 39 40 41 42 43 44 45 46 47 48 49 50
000
ASUS43 KLSX 210807
RWRMO

WEATHER SUMMARY FOR MISSOURI
NATIONAL WEATHER SERVICE SPRINGFIELD MO
300 AM CDT SUN SEP 21 2014

NOTE: "FAIR" INDICATES FEW OR NO CLOUDS BELOW 12,000 FEET WITH NO
       SIGNIFICANT WEATHER AND/OR OBSTRUCTIONS TO VISIBILITY.
       CURRENT SKY AND/OR WEATHER CONDITIONS ARE NOT AVAILABLE FOR
       CHILLICOTHE AND FARMINGTON.

MOZ001>031-035>038-043-044-053-054-210900-
...NORTHERN AND WESTERN MISSOURI...

CITY           SKY/WX    TMP DP  RH WIND       PRES   REMARKS
KANSAS CTY INT CLEAR     64  56  75 N12       30.06R
KANSAS C DTWN  CLEAR     69  58  67 VRB7      30.05R
LEE`S SUMMIT   CLEAR     69  62  78 N15       30.06R
ST JOSEPH      CLEAR     60  53  77 N5        30.07R
CHILLICOTHE      N/A     65  49  56 VRB7G17   30.05R
KIRKSVILLE     CLEAR     61  51  70 N8        30.01R

$$
MOZ066>068-077>081-088>096-101>105-210900-
...SOUTHWEST MISSOURI...

CITY           SKY/WX    TMP DP  RH WIND       PRES   REMARKS
SPRINGFIELD    MOCLDY    72  67  84 SW3       30.03S
JOPLIN         CLOUDY    73  67  81 SW7       30.03S

$$
MOZ032>034-039>042-045>050-055>058-069>072-210900-
...CENTRAL MISSOURI...

CITY           SKY/WX    TMP DP  RH WIND       PRES   REMARKS
COLUMBIA       CLEAR     70  69  97 W7        29.95F
JEFFERSON CITY PTCLDY    71  68  90 W5        29.95S
ROLLA          CLOUDY    71  67  87 SW6       29.97S
SEDALIA        CLEAR     71  68  90 W6        29.98S
WHITEMAN AFB   CLEAR     69  67  94 NW9       30.01R
OSAGE BEACH    CLOUDY    73  68  83 W9        29.99S

$$
MOZ051-052-059>065-210900-
...EAST CENTRAL MISSOURI...

CITY           SKY/WX    TMP DP  RH WIND       PRES   REMARKS
ST LOUIS INTL  PTCLDY    74  68  81 W9        29.90F
SPIRIT OF STL  PTCLDY    72  69  90 W8        29.90S
ST CHARLES     CLEAR     71  69  93 W6        29.89S FOG

$$
MOZ072>076-082>087-097>100-106>115-210900-
...SOUTH CENTRAL AND SOUTHEAST MISSOURI...

CITY           SKY/WX    TMP DP  RH WIND       PRES   REMARKS
CAPE GIRARDEAU CLEAR     66  65  96 CALM      29.94F
FARMINGTON     PTCLDY    72  66  83 SW3       29.97F
POPLAR BLUFF   CLEAR     70  65  84 SW5       29.95F
WEST PLAINS    CLEAR     69  66  90 W6        30.03F

$$



USA.gov is the U.S. government's official web portal to all federal, state and local government web resources and services.